Home > Weather > Herrenberg > Past weeks

Flag for Germany Past Weather in Herrenberg, Baden-Württemberg, Germany — Yesterday and Last 2 Weeks

Now
72 °F

Sunny.


Feels Like: 76 °F
Forecast: 53 / 76 °F
Wind: 5 mph from Northwest

Location: Stuttgart-Echterdingen

Current Time: Jul 27, 2016 at 9:23:02 PM

Latest Report: Jul 27, 2016 at 8:50 PM


Visibility: 10 mi

Pressure: 30.07 "Hg

Humidity: 61%

Dew Point: 57 °F

Location of HerrenbergLocation

Past Weather in Herrenberg — Graph

°F

Herrenberg Temperature Yesterday

Maximum temperature yesterday: 81 °F (at 1:50 PM)
Minimum temperature yesterday: 64 °F (at 3:20 AM)
Average temperature yesterday: 73 °F

High & Low Weather Summary for the Past Weeks

 TemperatureHumidityPressure
High91 °F (Jul 20, 4:20 PM)100% (Jul 18, 6:20 AM)30.33 "Hg (Jul 18, 6:20 AM)
Low48 °F (Jul 15, 5:50 AM)28% (Jul 20, 4:50 PM)29.92 "Hg (Jul 12, 8:50 PM)
Average68 °F72%30.11 "Hg
* Reported Jul 12 8:20 PM — Jul 27 8:20 PM, Herrenberg, Weather by CustomWeather, © 2016

Note: Actual official high and low records may vary slightly from our data, if they occured in-between our weather recording intervals... More about our weather records

Advertising

Herrenberg Weather History for the Previous 24 Hours

Scroll right to see more
 ConditionsComfort  
Time TempWeatherWind HumidityBarometerVisibility
8:20 PM
Wed, Jul 27
73 °FSunny.9 mph53%30.07 "Hg10 mi
7:50 PM73 °FSunny.12 mph53%30.04 "Hg10 mi
7:20 PM75 °FSunny.16 mph50%30.04 "Hg10 mi
6:50 PM77 °FSunny.16 mph47%30.04 "Hg10 mi
6:20 PM77 °FPassing clouds.14 mph47%30.04 "HgN/A
5:50 PM79 °FPassing clouds.13 mph45%30.04 "HgN/A
5:20 PM79 °FPassing clouds.13 mph42%30.04 "HgN/A
4:50 PM79 °FPassing clouds.14 mph45%30.01 "HgN/A
4:20 PM79 °FPassing clouds.10 mph45%30.04 "HgN/A
3:50 PM79 °FScattered clouds.8 mph48%30.04 "HgN/A
3:20 PM77 °FScattered clouds.5 mph51%30.04 "HgN/A
2:50 PM79 °FScattered clouds.6 mph48%30.04 "HgN/A
2:20 PM77 °FScattered clouds.3 mph51%30.07 "HgN/A
1:50 PM75 °FScattered clouds.7 mph57%30.07 "HgN/A
1:20 PM75 °FScattered clouds.5 mph57%30.07 "HgN/A
12:50 PM75 °FBroken clouds.3 mph61%30.07 "HgN/A
12:20 PM73 °FScattered clouds.5 mph65%30.09 "HgN/A
11:50 AM72 °FPartly sunny.3 mph69%30.09 "HgN/A
11:20 AM72 °FPartly sunny.6 mph69%30.09 "HgN/A
10:50 AM72 °FPartly sunny.7 mph61%30.09 "HgN/A
10:20 AM70 °FPartly sunny.7 mph64%30.09 "HgN/A
9:50 AM70 °FPartly sunny.10 mph64%30.09 "HgN/A
9:20 AM70 °FPartly sunny.9 mph69%30.09 "HgN/A
8:50 AM68 °FScattered clouds.3 mph83%30.09 "HgN/A
8:20 AM68 °FPassing clouds.2 mph83%30.09 "HgN/A
7:50 AM64 °FScattered clouds.2 mph94%30.09 "HgN/A
7:20 AM63 °FFog.1 mph100%30.09 "HgN/A
6:50 AM63 °FFog.No wind94%30.09 "HgN/A
6:20 AM64 °FPassing clouds.2 mph94%30.07 "HgN/A
5:50 AM63 °FPassing clouds.5 mph100%30.07 "HgN/A
5:20 AM63 °FClear.2 mph94%30.07 "Hg10 mi
4:50 AM63 °FClear.2 mph94%30.07 "Hg6 mi
4:20 AM63 °FClear.1 mph94%30.07 "Hg10 mi
3:50 AM63 °FClear.2 mph94%30.09 "Hg10 mi
3:20 AM64 °FClear.2 mph94%30.09 "Hg10 mi
2:50 AM64 °FClear.2 mph94%30.09 "Hg10 mi
2:20 AM66 °FPassing clouds.3 mph94%30.09 "HgN/A
1:50 AM66 °FClear.2 mph88%30.09 "Hg10 mi
1:20 AM66 °FClear.2 mph83%30.09 "Hg10 mi
12:50 AM66 °FPassing clouds.3 mph83%30.09 "HgN/A
12:20 AM68 °FThundershowers. Partly cloudy.6 mph78%30.12 "HgN/A
11:50 PM
Tue, Jul 26
68 °FThundershowers. Partly cloudy.13 mph78%30.12 "HgN/A
11:20 PM72 °FThundershowers. Partly cloudy.8 mph78%30.12 "HgN/A
10:50 PM72 °FMild.7 mph78%30.12 "HgN/A
10:20 PM72 °FThundershowers. Partly cloudy.12 mph78%30.09 "HgN/A
9:50 PM73 °FPartly sunny.7 mph69%30.09 "HgN/A
9:20 PM73 °FPartly sunny.8 mph69%30.09 "HgN/A
Weather by CustomWeather, © 2016

See weather overviewHow to use our weather pages